Location: Janeiro
(34.9957°N, 76.7652°W)
Time: 10:14:42
(UTC+00:00)

Cosmos 1417 Rocket - Pass Details

Date: 14 December 2019
Orbit: 952 x 998 km, 83.0° (Epoch: 27 January)

Event Time Altitude Azimuth Distance (km) Brightness Sun altitude
Rises 23:22:54 0° 354° (N) 3,634 7.4 -17.2°
Reaches altitude 10° 23:25:24 10° 355° (N) 2,686 6.7 -17.7°
Maximum altitude 23:31:33 85° 83° (E) 966 4.4 -18.9°
Drops below altitude 10° 23:37:43 10° 173° (S) 2,691 6.9 -20.1°
Sets 23:40:12 0° 174° (S) 3,640 7.6 -20.6°
